Retour au catalogue

COSMOS 886 DEB

ActifUNKNOWN
NORAD 13507·DEBRIS·🇷🇺 Russia

Lancé Dec 27, 1976 depuis Baikonur Cosmodrome

Loading…

Prochains Passages (prochaines 24 heures)

TLE

FraisSource: Space-Track

Époque: Sep 11, 2026, 18:52 UTC

1 13507U 76126BK  26254.78670166  .00000207  00000-0  11540-2 0  9990
2 13507  65.7600  13.2092 0883581 232.4561 291.8934 11.92306522971111

Suivez COSMOS 886 DEB en temps réel avec AllMySat

Download on the App Store